Regional Weather Roundup
Issued by NWS

Home | Current Version | Previous Version | Text Only | Print | Product List | Glossary Off
Versions: 1 2 3 4 5 6 7 8 9 10 11 12 13 14 15 16 17 18 19 20 21 22 23 24 25 26 27 28 29 30 31 32 33 34 35 36 37 38 39 40 41 42 43 44 45 46 47 48 49 50

000
ASUS43 KDMX 261207
RWRIA

WEATHER ROUNDUP FOR IOWA
NATIONAL WEATHER SERVICE DES MOINES IA
600 AM CST THU FEB 26 2015

NOTE: "FAIR" INDICATES FEW OR NO CLOUDS BELOW 12,000 FEET WITH NO
SIGNIFICANT WEATHER AND/OR OBSTRUCTIONS TO VISIBILITY.

* - THESE STATIONS ARE NOT NWS STATIONS...THUS NOT UNDER NWS
QUALITY CONTROL.  THEY ALSO DO NOT REPORT WEATHER SUCH
AS PRECIPITATION OR FOG.

IAZ001>003-012>014-020>022-031>034-043>046-261300-
   NORTHWEST IOWA

CITY           SKY/WX    TMP DP  RH WIND       PRES   REMARKS
CARROLL *      PTCLDY    -2  -9  71 NW16      30.37R WCI -23
CHEROKEE *     CLEAR     -6 -12  78 N9        30.41R WCI -23
DENISON *      PTCLDY    -4 -11  71 N12       30.38R WCI -22
LE MARS *      PTCLDY    -6  -9  84 NW7       30.46R WCI -20
ORANGE CITY *  CLEAR     -6 -11  77 N12       30.39R WCI -24
SHELDON *      PTCLDY    -9 -15  77 NW8       30.39R WCI -26
SIOUX CITY     CLEAR     -1  -8  72 N13       30.46R WCI -19
6HR MIN TEMP:  -1; 6HR MAX TEMP:   6;

SPENCER        MOCLDY    -5 -12  72 N17       30.38R WCI -27
6HR MIN TEMP:  -5; 6HR MAX TEMP:   2;

STORM LAKE *   CLOUDY    -6 -13  71 N13       30.37R WCI -25
$$

IAZ055>058-069>071-079>083-090>094-261300-
   SOUTHWEST IOWA

CITY           SKY/WX    TMP DP  RH WIND       PRES   REMARKS
ATLANTIC *     MOCLDY     0  -8  71 N14       30.37S WCI -19
AUDUBON *      CLEAR     -2  -8  78 N13       30.36R WCI -21
CLARINDA *     MOCLDY     3  -4  72 N14G22    30.40R WCI -15
COUNCIL BLFS * CLOUDY     0  -6  78 N18G24    30.38R WCI -22
CRESTON *      CLEAR      1  -6  71 NW17G23   30.30R WCI -19
HARLAN  *      CLEAR     -2  -8  78 N16G22    30.42R WCI -23
LAMONI         CLEAR      3  -4  72 N13       30.28R WCI -14
6HR MIN TEMP:   3; 6HR MAX TEMP:  13; 6HR PCP: TRACE;

RED OAK *      CLEAR      1  -6  71 N15G22    30.40R WCI -18
SHENANDOAH *   CLEAR      3  -4  72 N15G21    30.41R WCI -15
$$

IAZ047>049-059>061-072>074-084-261300-
   CENTRAL IOWA

CITY           SKY/WX    TMP DP  RH WIND       PRES   REMARKS
AMES           CLEAR     -1  -9  68 N18       30.33R WCI -22
6HR MIN TEMP:  -1; 6HR MAX TEMP:   8;

ANKENY *       CLEAR      1  -8  66 N14       30.33R WCI -17
CHARITON *     MOCLDY     5  -4  66 N18       30.27R WCI -15
DES MOINES     PTCLDY     3  -7  63 N12       30.32R WCI -13
6HR MIN TEMP:   3; 6HR MAX TEMP:  11;

GRINNELL*      MOCLDY     1  -6  71 N15       30.26R WCI -18
KNOXVILLE *    MOCLDY     3  -6  66 N16       30.27R WCI -16
MARSHALLTOWN   CLEAR     -2 -10  69 N14       30.28R WCI -21
6HR MIN TEMP:  -2; 6HR MAX TEMP:   7;

PELLA *        CLEAR      4  -1  78 N14       30.30R WCI -13
PERRY *          N/A      0  -6  78 N14G20    30.35R WCI -19
$$

IAZ004>006-015-016-023>025-035-036-261300-
   NORTH CENTRAL IOWA

CITY           SKY/WX    TMP DP  RH WIND       PRES   REMARKS
ALGONA *       CLEAR     -6 -11  77 N12G18    30.36R WCI -24
CLARION *      CLEAR     -8 -13  77 N13       30.33R WCI -28
ESTHERVILLE    CLEAR     -8 -13  78 NW15      30.36R WCI -30
6HR MIN TEMP:  -8; 6HR MAX TEMP:   0;

FORT DODGE *   PTCLDY    -6 -11  77 N9        30.36R WCI -22
MASON CITY     CLEAR     -7 -14  71 NW14      30.32R WCI -28
6HR MIN TEMP:  -7; 6HR MAX TEMP:   1;

FOREST CITY *  CLEAR     -4 -13  65 NW14G21   30.32R WCI -24
IOWA FALLS *     N/A     -4 -11  71 NW13      30.31R WCI -23
$$

IAZ007>011-017>019-026>030-037>042-050>054-066-261300-
   NORTHEAST IOWA

CITY           SKY/WX    TMP DP  RH WIND       PRES   REMARKS
CEDAR RAPIDS   CLOUDY     7  -2  66 N16       30.22R WCI -11
6HR MIN TEMP:   5; 6HR MAX TEMP:  13; 6HR PCP: TRACE;

CHARLES CITY * PTCLDY    -6 -15  65 N13       30.29R WCI -25
CLINTON *      CLOUDY     9   1  72 N16       30.20R WCI  -9
DECORAH *      CLEAR     -2 -11  65 N9        30.25R WCI -18
DUBUQUE        CLOUDY     4  -4  69 N13       30.19R WCI -13
6HR MIN TEMP:   4; 6HR MAX TEMP:  12; 6HR PCP: TRACE;

MONTICELLO *   CLOUDY     5  -4  66 N9        30.23R WCI  -9
OELWEIN *      CLEAR     -6 -15  65 N10       30.25R WCI -23
WATERLOO       CLEAR     -5 -12  72 NW12      30.28R WCI -23
6HR MIN TEMP:  -6; 6HR MAX TEMP:   6;

$$

IAZ064-065-067-068-078-261300-
   EAST CENTRAL IOWA

CITY           SKY/WX    TMP DP  RH WIND       PRES   REMARKS
DAVENPORT      CLOUDY    10   3  73 N14       30.19R WCI  -6
6HR MIN TEMP:  10; 6HR MAX TEMP:  14; 6HR PCP: TRACE;

IOWA CITY      CLOUDY     9  -2  61 N13       30.25R WCI  -7
6HR MIN TEMP:   8; 6HR MAX TEMP:  15; 6HR PCP: TRACE;

MT. PLEASANT * LGT SNOW  10   5  80 N17       30.21R WCI  -8
MUSCATINE *    CLOUDY    12   3  67 N14       30.23R WCI  -3
QUAD CITIES    CLOUDY    13   7  77 N9        30.18R HAZE    WCI   1
6HR MIN TEMP:  13; 6HR MAX TEMP:  15; 6HR PCP:  0.03;

$$

IAZ062-063-075>077-085>089-095>099-261300-
   SOUTHEAST IOWA

CITY           SKY/WX    TMP DP  RH WIND       PRES   REMARKS
BURLINGTON     LGT SNOW  13   9  84 N14       30.17R FOG     WCI  -2
6HR MIN TEMP:  13; 6HR MAX TEMP:  16; 6HR PCP: TRACE;

FAIRFIELD *    CLOUDY     9  -2  61 N16       30.23R WCI  -9
FORT MADISON * FLURRIES  12   9  85 N14       30.19R WCI  -3
KEOKUK *       FLURRIES  14  10  85 N9G18     30.19R WCI   2
OSKALOOSA *    CLOUDY     8  -1  68 N14       30.25R WCI  -9
CENTERVILLE *  CLEAR      9   0  66 NW13      30.26R WCI  -7
OTTUMWA        CLOUDY     8  -2  63 N15       30.24R WCI  -9
6HR MIN TEMP:   8; 6HR MAX TEMP:  14; 6HR PCP: TRACE;

WASHINGTON *   CLOUDY     9   3  78 N17       30.22R WCI -10
$$

ABBREVIATIONS USED IN REMARKS
   TC - TEMPERATURES IN CELSIUS
  WCI - WIND CHILL INDEX
   HX - HEAT INDEX
  VSB - VISIBILITY
$$



USA.gov is the U.S. government's official web portal to all federal, state and local government web resources and services.